| time (UTC) | temp F | wind direction | speed knots | gust knots | rain 1hr in | rain 24hr in | rain mn in | humidity % | barometer mb |
| 20260503022056 | 48 | 350 | 3.5 | 7.0 | 0.00 | 0.01 | 0.01 | 54 | 1017.7 |
| 20260503021554 | 48 | 5 | 2.6 | 7.8 | 0.00 | 0.01 | 0.01 | 54 | 1017.6 |
| 20260503021053 | 49 | 9 | 1.7 | 7.0 | 0.00 | 0.01 | 0.01 | 53 | 1017.6 |
| 20260503020553 | 49 | 309 | 3.5 | 7.8 | 0.00 | 0.01 | 0.01 | 53 | 1017.5 |
| 20260503020054 | 49 | 319 | 4.3 | 8.7 | 0.00 | 0.01 | 0.01 | 53 | 1017.4 |
| 20260503015552 | 49 | 360 | 5.2 | 8.7 | 0.00 | 0.01 | 0.01 | 53 | 1017.3 |
| 20260503015048 | 49 | 355 | 4.3 | 7.0 | 0.00 | 0.01 | 0.01 | 52 | 1017.2 |
| 20260503014605 | 49 | 355 | 1.7 | 7.8 | 0.00 | 0.01 | 0.01 | 52 | 1017.2 |
| 20260503014048 | 50 | 10 | 4.3 | 7.8 | 0.00 | 0.01 | 0.01 | 52 | 1017.1 |
| 20260503013548 | 50 | 5 | 3.5 | 7.8 | 0.00 | 0.01 | 0.01 | 52 | 1017.1 |
| 20260503013048 | 50 | 338 | 2.6 | 8.7 | 0.00 | 0.01 | 0.01 | 51 | 1017.0 |
| 20260503012548 | 50 | 360 | 4.3 | 11.3 | 0.00 | 0.01 | 0.01 | 51 | 1016.9 |
| 20260503012048 | 50 | 40 | 7.8 | 11.3 | 0.00 | 0.01 | 0.01 | 51 | 1016.8 |
| 20260503011554 | 51 | 5 | 4.3 | 11.3 | 0.00 | 0.01 | 0.01 | 51 | 1016.7 |
| 20260503011047 | 51 | 5 | 6.1 | 11.3 | 0.00 | 0.01 | 0.01 | 50 | 1016.6 |
| 20260503010548 | 51 | 5 | 4.3 | 7.0 | 0.00 | 0.01 | 0.01 | 50 | 1016.6 |
| 20260503010048 | 51 | 338 | 3.5 | 7.8 | 0.00 | 0.01 | 0.01 | 50 | 1016.6 |
| 20260503005551 | 51 | 360 | 5.2 | 8.7 | 0.00 | 0.01 | 0.01 | 50 | 1016.5 |
| 20260503005047 | 51 | 313 | 4.3 | 9.6 | 0.00 | 0.01 | 0.01 | 49 | 1016.5 |
| 20260503004546 | 52 | 335 | 5.2 | 9.6 | 0.00 | 0.01 | 0.01 | 49 | 1016.4 |
| 20260503004047 | 52 | 345 | 5.2 | 10.4 | 0.00 | 0.01 | 0.01 | 48 | 1016.4 |
| 20260503003545 | 52 | 350 | 5.2 | 10.4 | 0.00 | 0.01 | 0.01 | 48 | 1016.3 |
| 20260503003044 | 52 | 351 | 5.2 | 8.7 | 0.00 | 0.01 | 0.01 | 49 | 1016.2 |
| 20260503002547 | 52 | 360 | 4.3 | 7.8 | 0.00 | 0.01 | 0.01 | 49 | 1016.2 |
| 20260503002044 | 53 | 360 | 5.2 | 7.8 | 0.00 | 0.01 | 0.01 | 48 | 1016.1 |
| 20260503001555 | 53 | 347 | 4.3 | 7.8 | 0.00 | 0.01 | 0.01 | 47 | 1016.1 |
| 20260503001043 | 53 | 5 | 5.2 | 7.8 | 0.00 | 0.01 | 0.01 | 47 | 1016.0 |
| 20260503000544 | 53 | 326 | 4.3 | 7.8 | 0.00 | 0.01 | 0.01 | 47 | 1016.0 |
| 20260503000043 | 53 | 347 | 3.5 | 6.1 | 0.00 | 0.01 | 0.01 | 47 | 1015.8 |
| 20260502235543 | 53 | 360 | 3.5 | 6.1 | 0.00 | 0.01 | 0.01 | 47 | 1015.8 |
| 20260502235048 | 54 | 319 | 3.5 | 7.0 | 0.00 | 0.01 | 0.01 | 47 | 1015.8 |
| 20260502235043 | 54 | 326 | 3.5 | 7.0 | 0.00 | 0.01 | 0.01 | 47 | 1015.8 |
| 20260502234543 | 54 | 315 | 4.3 | 7.0 | 0.00 | 0.01 | 0.01 | 47 | 1015.7 |
| 20260502234042 | 54 | 294 | 4.3 | 7.8 | 0.00 | 0.01 | 0.01 | 46 | 1015.7 |
| 20260502233542 | 54 | 305 | 4.3 | 7.8 | 0.00 | 0.01 | 0.01 | 45 | 1015.7 |
| 20260502233045 | 54 | 317 | 5.2 | 7.8 | 0.00 | 0.01 | 0.01 | 45 | 1015.6 |
| 20260502232545 | 54 | 355 | 4.3 | 7.8 | 0.00 | 0.01 | 0.01 | 45 | 1015.6 |
| 20260502232043 | 54 | 340 | 3.5 | 8.7 | 0.00 | 0.01 | 0.01 | 46 | 1015.6 |
| 20260502231541 | 54 | 348 | 5.2 | 10.4 | 0.00 | 0.01 | 0.01 | 45 | 1015.6 |
| 20260502231041 | 54 | 313 | 5.2 | 9.6 | 0.00 | 0.01 | 0.01 | 45 | 1015.5 |
| 20260502230541 | 54 | 309 | 4.3 | 8.7 | 0.00 | 0.01 | 0.01 | 45 | 1015.5 |
| 20260502230040 | 54 | 287 | 5.2 | 9.6 | 0.00 | 0.01 | 0.01 | 45 | 1015.4 |
| 20260502225542 | 54 | 307 | 6.1 | 9.6 | 0.00 | 0.01 | 0.01 | 45 | 1015.4 |
| 20260502225040 | 55 | 341 | 5.2 | 10.4 | 0.00 | 0.01 | 0.01 | 45 | 1015.4 |
| 20260502224537 | 55 | 311 | 7.0 | 10.4 | 0.00 | 0.01 | 0.01 | 44 | 1015.4 |
| 20260502224037 | 55 | 286 | 5.2 | 10.4 | 0.00 | 0.01 | 0.01 | 43 | 1015.4 |
| 20260502223537 | 55 | 332 | 6.1 | 11.3 | 0.00 | 0.01 | 0.01 | 44 | 1015.4 |
| 20260502223037 | 55 | 270 | 6.1 | 11.3 | 0.00 | 0.01 | 0.01 | 44 | 1015.3 |
| 20260502222540 | 55 | 307 | 5.2 | 11.3 | 0.00 | 0.01 | 0.01 | 44 | 1015.3 |
| 20260502222036 | 55 | 306 | 6.1 | 11.3 | 0.00 | 0.01 | 0.01 | 44 | 1015.3 |
| 20260502221541 | 56 | 344 | 5.2 | 9.6 | 0.00 | 0.01 | 0.01 | 44 | 1015.3 |
| 20260502221038 | 56 | 290 | 5.2 | 9.6 | 0.00 | 0.01 | 0.01 | 43 | 1015.2 |
| 20260502220536 | 56 | 337 | 4.3 | 9.6 | 0.00 | 0.01 | 0.01 | 43 | 1015.2 |
| 20260502220036 | 56 | 301 | 4.3 | 10.4 | 0.00 | 0.01 | 0.01 | 43 | 1015.1 |
| 20260502215537 | 56 | 323 | 6.1 | 11.3 | 0.00 | 0.01 | 0.01 | 43 | 1015.1 |
| 20260502215037 | 56 | 355 | 6.1 | 11.3 | 0.00 | 0.01 | 0.01 | 44 | 1015.1 |
| 20260502214533 | 56 | 311 | 5.2 | 11.3 | 0.00 | 0.01 | 0.01 | 43 | 1015.0 |
| 20260502214032 | 56 | 331 | 5.2 | 12.2 | 0.00 | 0.01 | 0.01 | 43 | 1015.0 |
| 20260502213533 | 56 | 294 | 7.0 | 15.6 | 0.00 | 0.01 | 0.01 | 42 | 1015.0 |
| 20260502213034 | 57 | 293 | 7.0 | 15.6 | 0.00 | 0.01 | 0.01 | 40 | 1015.0 |
| 20260502212533 | 57 | 292 | 6.1 | 11.3 | 0.00 | 0.01 | 0.01 | 40 | 1014.9 |
| 20260502212032 | 58 | 288 | 6.1 | 11.3 | 0.00 | 0.01 | 0.01 | 41 | 1014.9 |
| 20260502211533 | 58 | 355 | 7.8 | 12.2 | 0.00 | 0.01 | 0.01 | 40 | 1014.8 |
| 20260502211032 | 57 | 337 | 6.1 | 12.2 | 0.00 | 0.01 | 0.01 | 41 | 1014.9 |
| 20260502210532 | 57 | 342 | 7.8 | 15.6 | 0.00 | 0.01 | 0.01 | 42 | 1014.9 |
| 20260502210031 | 57 | 319 | 7.8 | 15.6 | 0.00 | 0.01 | 0.01 | 42 | 1014.9 |
| 20260502205530 | 57 | 260 | 6.1 | 12.2 | 0.00 | 0.01 | 0.01 | 42 | 1014.9 |
| 20260502205030 | 57 | 298 | 7.8 | 13.0 | 0.00 | 0.01 | 0.01 | 41 | 1014.9 |
| 20260502204529 | 57 | 348 | 4.3 | 13.0 | 0.00 | 0.01 | 0.01 | 41 | 1015.0 |
| 20260502204030 | 57 | 337 | 4.3 | 13.9 | 0.00 | 0.01 | 0.01 | 41 | 1014.9 |
| 20260502203528 | 57 | 310 | 8.7 | 13.9 | 0.00 | 0.01 | 0.01 | 41 | 1015.0 |
| 20260502203028 | 57 | 321 | 4.3 | 11.3 | 0.00 | 0.01 | 0.01 | 42 | 1015.0 |
| 20260502202527 | 57 | 319 | 6.1 | 11.3 | 0.00 | 0.01 | 0.01 | 42 | 1015.0 |
| 20260502202027 | 57 | 301 | 6.1 | 10.4 | 0.00 | 0.01 | 0.01 | 41 | 1015.1 |
| 20260502201526 | 57 | 283 | 7.0 | 10.4 | 0.00 | 0.01 | 0.01 | 41 | 1015.2 |
| 20260502201026 | 57 | 317 | 5.2 | 8.7 | 0.00 | 0.01 | 0.01 | 43 | 1015.2 |
| 20260502200528 | 57 | 290 | 4.3 | 13.0 | 0.00 | 0.01 | 0.01 | 43 | 1015.1 |
| 20260502200025 | 57 | 291 | 5.2 | 16.5 | 0.00 | 0.01 | 0.01 | 42 | 1015.2 |
| 20260502195524 | 57 | 333 | 5.2 | 16.5 | 0.00 | 0.01 | 0.01 | 41 | 1015.2 |
| 20260502195023 | 58 | 285 | 8.7 | 16.5 | 0.00 | 0.01 | 0.01 | 41 | 1015.3 |
| 20260502194520 | 57 | 310 | 6.1 | 10.4 | 0.00 | 0.01 | 0.01 | 44 | 1015.3 |
| 20260502194020 | 57 | 331 | 7.0 | 13.0 | 0.00 | 0.01 | 0.01 | 44 | 1015.3 |
| 20260502193520 | 57 | 299 | 6.1 | 11.3 | 0.00 | 0.01 | 0.01 | 42 | 1015.4 |
| 20260502193019 | 57 | 275 | 6.1 | 11.3 | 0.00 | 0.01 | 0.01 | 42 | 1015.4 |
| 20260502192520 | 57 | 283 | 6.1 | 11.3 | 0.00 | 0.01 | 0.01 | 42 | 1015.4 |
| 20260502192019 | 58 | 305 | 6.1 | 16.5 | 0.00 | 0.01 | 0.01 | 41 | 1015.4 |
| 20260502191519 | 58 | 288 | 7.8 | 16.5 | 0.00 | 0.01 | 0.01 | 40 | 1015.5 |
| 20260502191019 | 59 | 329 | 8.7 | 15.6 | 0.00 | 0.01 | 0.01 | 38 | 1015.5 |
| 20260502190518 | 60 | 284 | 4.3 | 11.3 | 0.00 | 0.01 | 0.01 | 38 | 1015.4 |
| 20260502190018 | 60 | 269 | 6.1 | 11.3 | 0.00 | 0.01 | 0.01 | 39 | 1015.5 |
| 20260502185516 | 60 | 260 | 4.3 | 11.3 | 0.00 | 0.01 | 0.01 | 39 | 1015.6 |
| 20260502185017 | 60 | 339 | 7.8 | 11.3 | 0.00 | 0.01 | 0.01 | 39 | 1015.6 |
| 20260502184525 | 60 | 312 | 4.3 | 9.6 | 0.00 | 0.01 | 0.01 | 42 | 1015.6 |
| 20260502184013 | 58 | 234 | 0.9 | 10.4 | 0.00 | 0.01 | 0.01 | 43 | 1015.7 |
| 20260502183512 | 58 | 323 | 5.2 | 10.4 | 0.00 | 0.01 | 0.01 | 43 | 1015.7 |
| 20260502183025 | 58 | 308 | 1.7 | 7.8 | 0.00 | 0.01 | 0.01 | 43 | 1015.8 |
| 20260502182512 | 59 | 214 | 3.5 | 7.8 | 0.00 | 0.01 | 0.01 | 41 | 1015.7 |
| 20260502182010 | 58 | 238 | 4.3 | 8.7 | 0.00 | 0.01 | 0.01 | 43 | 1015.9 |
| 20260502181518 | 57 | 273 | 5.2 | 10.4 | 0.00 | 0.01 | 0.01 | 45 | 1016.0 |
| 20260502181514 | 57 | 261 | 5.2 | 10.4 | 0.00 | 0.01 | 0.01 | 45 | 1016.0 |
| 20260502181009 | 55 | 283 | 5.2 | 13.0 | 0.00 | 0.01 | 0.01 | 47 | 1016.2 |
| 20260502180509 | 55 | 299 | 5.2 | 13.0 | 0.01 | 0.01 | 0.01 | 46 | 1016.2 |
| 20260502170504 | 58 | 346 | 11.3 | 17.4 | 0.00 | 0.00 | 0.00 | 42 | 1016.3 |
| 20260502164033 | 57 | 302 | 7.0 | 17.4 | 0.00 | 0.00 | 0.00 | 43 | 1016.5 |
| 20260502163532 | 57 | 348 | 7.8 | 18.2 | 0.00 | 0.00 | 0.00 | 42 | 1016.4 |
| 20260502163032 | 58 | 314 | 8.7 | 18.2 | 0.00 | 0.00 | 0.00 | 41 | 1016.5 |
| 20260502162530 | 58 | 285 | 5.2 | 11.3 | 0.00 | 0.00 | 0.00 | 44 | 1016.5 |
| 20260502162034 | 57 | 306 | 6.1 | 13.9 | 0.00 | 0.00 | 0.00 | 45 | 1016.6 |
| 20260502161529 | 56 | 246 | 6.1 | 13.9 | 0.00 | 0.00 | 0.00 | 44 | 1016.6 |
| 20260502161025 | 57 | 282 | 6.1 | 10.4 | 0.00 | 0.00 | 0.00 | 42 | 1016.7 |
| 20260502160527 | 58 | 355 | 6.1 | 11.3 | 0.00 | 0.00 | 0.00 | 42 | 1016.6 |
| 20260502152018 | 57 | 36 | 5.2 | 7.8 | 0.00 | 0.01 | 0.00 | 50 | 1016.9 |
| 20260502151518 | 57 | 307 | 2.6 | 7.0 | 0.00 | 0.01 | 0.00 | 51 | 1017.0 |
| 20260502151015 | 55 | 133 | 0.9 | 6.1 | 0.00 | 0.01 | 0.00 | 52 | 1016.8 |
| 20260502150514 | 55 | 315 | 2.6 | 6.1 | 0.00 | 0.01 | 0.00 | 53 | 1016.9 |
| 20260502130540 | 45 | 295 | 0.0 | 1.7 | 0.00 | 0.01 | 0.00 | 94 | 1017.2 |
| 20260502123529 | 42 | 260 | 0.0 | 0.0 | 0.00 | 0.01 | 0.00 | 96 | 1017.1 |
| 20260502123033 | 42 | 260 | 0.0 | 0.0 | 0.00 | 0.01 | 0.00 | 95 | 1017.0 |
| 20260502122527 | 42 | 261 | 0.0 | 0.0 | 0.00 | 0.01 | 0.00 | 96 | 1016.9 |
| 20260502122025 | 42 | 262 | 0.0 | 0.0 | 0.00 | 0.01 | 0.00 | 95 | 1016.9 |
| 20260502121525 | 41 | 265 | 0.0 | 0.0 | 0.00 | 0.01 | 0.00 | 96 | 1017.0 |
| 20260502121024 | 41 | 266 | 0.0 | 0.0 | 0.00 | 0.01 | 0.00 | 96 | 1017.1 |
| 20260502120520 | 41 | 279 | 0.0 | 0.0 | 0.00 | 0.01 | 0.00 | 96 | 1017.1 |
| 20260502115518 | 41 | 313 | 0.0 | 0.0 | 0.00 | 0.01 | 0.00 | 96 | 1017.0 |
| 20260502115017 | 40 | 313 | 0.0 | 0.0 | 0.00 | 0.01 | 0.00 | 95 | 1016.9 |
| 20260502114516 | 40 | 315 | 0.0 | 0.0 | 0.00 | 0.01 | 0.00 | 95 | 1016.9 |
| 20260502114015 | 40 | 315 | 0.0 | 3.5 | 0.00 | 0.01 | 0.00 | 95 | 1016.9 |
| 20260502113513 | 40 | 317 | 0.0 | 0.0 | 0.00 | 0.01 | 0.00 | 95 | 1016.8 |
| 20260502113012 | 40 | 317 | 0.0 | 0.9 | 0.00 | 0.01 | 0.00 | 95 | 1016.9 |
| 20260502112512 | 39 | 317 | 0.0 | 1.7 | 0.00 | 0.01 | 0.00 | 95 | 1016.9 |
| 20260502112011 | 39 | 317 | 0.9 | 1.7 | 0.00 | 0.01 | 0.00 | 95 | 1016.7 |
| 20260502111517 | 39 | 317 | 0.0 | 1.7 | 0.00 | 0.01 | 0.00 | 95 | 1016.7 |
| 20260502111011 | 39 | 317 | 0.0 | 1.7 | 0.00 | 0.01 | 0.00 | 95 | 1016.7 |
| 20260502110508 | 39 | 317 | 0.0 | 0.9 | 0.00 | 0.01 | 0.00 | 95 | 1016.6 |
| 20260502110012 | 39 | 317 | 0.0 | 1.7 | 0.00 | 0.01 | 0.00 | 94 | 1016.6 |
| 20260502105510 | 39 | 317 | 0.0 | 3.5 | 0.00 | 0.01 | 0.00 | 94 | 1016.5 |
| 20260502105010 | 39 | 317 | 0.9 | 2.6 | 0.00 | 0.01 | 0.00 | 94 | 1016.5 |
| 20260502104506 | 39 | 318 | 0.9 | 3.5 | 0.00 | 0.01 | 0.00 | 94 | 1016.5 |
| 20260502104004 | 39 | 318 | 0.9 | 4.3 | 0.00 | 0.01 | 0.00 | 94 | 1016.5 |
| 20260502103503 | 39 | 320 | 1.7 | 4.3 | 0.00 | 0.01 | 0.00 | 94 | 1016.6 |
| 20260502103002 | 39 | 55 | 0.0 | 0.9 | 0.00 | 0.01 | 0.00 | 94 | 1016.5 |
| 20260502102503 | 39 | 56 | 0.0 | 0.9 | 0.00 | 0.01 | 0.00 | 94 | 1016.4 |
| 20260502102002 | 39 | 57 | 0.0 | 0.9 | 0.00 | 0.01 | 0.00 | 93 | 1016.4 |
| 20260502101501 | 39 | 57 | 0.0 | 0.0 | 0.00 | 0.01 | 0.00 | 94 | 1016.5 |
| 20260502101101 | 39 | 57 | 0.0 | 0.0 | 0.00 | 0.01 | 0.00 | 94 | 1016.7 |
| 20260502100601 | 39 | 57 | 0.0 | 0.0 | 0.00 | 0.01 | 0.00 | 94 | 1016.8 |
| 20260502100505 | 39 | 57 | 0.0 | 0.0 | 0.00 | 0.01 | 0.00 | 94 | 1016.7 |
| 20260502091522 | 39 | 285 | 0.0 | 0.9 | 0.00 | 0.02 | 0.00 | 93 | 1016.7 |
| 20260502091022 | 39 | 273 | 0.0 | 0.0 | 0.00 | 0.02 | 0.00 | 93 | 1016.7 |
| 20260502090521 | 39 | 275 | 0.0 | 0.0 | 0.00 | 0.02 | 0.00 | 93 | 1016.7 |
| 20260502071510 | 40 | 285 | 0.0 | 0.0 | 0.00 | 0.02 | 0.02 | 91 | 1016.4 |
| 20260502071010 | 40 | 285 | 0.0 | 0.0 | 0.00 | 0.02 | 0.02 | 91 | 1016.3 |
| 20260502070510 | 40 | 285 | 0.0 | 0.0 | 0.00 | 0.02 | 0.02 | 90 | 1016.4 |
| 20260502070010 | 40 | 285 | 0.0 | 0.0 | 0.00 | 0.02 | 0.02 | 90 | 1016.4 |
| 20260502065510 | 41 | 285 | 0.0 | 0.9 | 0.00 | 0.02 | 0.02 | 90 | 1016.4 |
| 20260502065009 | 41 | 285 | 0.0 | 0.9 | 0.00 | 0.02 | 0.02 | 90 | 1016.6 |
| 20260502064509 | 41 | 285 | 0.0 | 1.7 | 0.00 | 0.02 | 0.02 | 90 | 1016.5 |
| 20260502064009 | 41 | 285 | 0.0 | 1.7 | 0.00 | 0.02 | 0.02 | 90 | 1016.7 |
| 20260502063509 | 41 | 285 | 0.0 | 3.5 | 0.00 | 0.02 | 0.02 | 89 | 1016.7 |
| 20260502063110 | 41 | 286 | 0.0 | 4.3 | 0.00 | 0.02 | 0.02 | 89 | 1016.6 |
| 20260502062543 | 41 | 287 | 0.9 | 4.3 | 0.00 | 0.02 | 0.02 | 89 | 1016.7 |
| 20260502062039 | 41 | 308 | 0.0 | 0.0 | 0.00 | 0.02 | 0.02 | 89 | 1016.7 |
| 20260502061541 | 41 | 308 | 0.0 | 0.0 | 0.00 | 0.02 | 0.02 | 88 | 1016.7 |
| 20260502061038 | 42 | 308 | 0.0 | 0.0 | 0.00 | 0.02 | 0.02 | 88 | 1016.7 |
| 20260502060541 | 42 | 308 | 0.0 | 0.0 | 0.00 | 0.02 | 0.02 | 88 | 1016.8 |
| 20260502060038 | 42 | 308 | 0.0 | 0.0 | 0.00 | 0.02 | 0.02 | 88 | 1016.9 |
| 20260502055536 | 42 | 308 | 0.0 | 0.0 | 0.00 | 0.02 | 0.02 | 88 | 1016.9 |
| 20260502055036 | 42 | 308 | 0.0 | 0.0 | 0.00 | 0.02 | 0.02 | 88 | 1016.9 |
| 20260502054536 | 42 | 308 | 0.0 | 0.0 | 0.00 | 0.02 | 0.02 | 88 | 1016.9 |
| 20260502054035 | 42 | 308 | 0.0 | 0.0 | 0.00 | 0.02 | 0.02 | 88 | 1016.8 |
| 20260502053535 | 42 | 308 | 0.0 | 0.0 | 0.00 | 0.02 | 0.02 | 88 | 1016.9 |
| 20260502053036 | 43 | 308 | 0.0 | 0.0 | 0.00 | 0.02 | 0.02 | 87 | 1017.0 |
| 20260502052535 | 43 | 308 | 0.0 | 0.0 | 0.00 | 0.02 | 0.02 | 87 | 1017.0 |
| 20260502052035 | 43 | 308 | 0.0 | 0.0 | 0.00 | 0.02 | 0.02 | 87 | 1017.0 |
| 20260502051543 | 43 | 308 | 0.0 | 0.0 | 0.00 | 0.02 | 0.02 | 87 | 1016.9 |
| 20260502051034 | 43 | 308 | 0.0 | 0.0 | 0.00 | 0.02 | 0.02 | 87 | 1017.0 |
| 20260502050534 | 43 | 308 | 0.0 | 0.0 | 0.00 | 0.02 | 0.02 | 86 | 1017.0 |
| 20260502050038 | 43 | 308 | 0.0 | 0.9 | 0.00 | 0.02 | 0.02 | 86 | 1017.1 |
| 20260502045531 | 44 | 308 | 0.0 | 3.5 | 0.00 | 0.02 | 0.02 | 86 | 1017.1 |
| 20260502045036 | 44 | 308 | 0.9 | 3.5 | 0.00 | 0.02 | 0.02 | 86 | 1017.0 |
| 20260502044531 | 44 | 309 | 1.7 | 3.5 | 0.00 | 0.02 | 0.02 | 85 | 1017.0 |
| 20260502044031 | 44 | 311 | 0.0 | 0.0 | 0.00 | 0.02 | 0.02 | 84 | 1017.1 |
| 20260502043530 | 44 | 311 | 0.0 | 0.0 | 0.00 | 0.02 | 0.02 | 84 | 1017.1 |
| 20260502043030 | 44 | 311 | 0.0 | 1.7 | 0.00 | 0.02 | 0.02 | 84 | 1017.2 |
| 20260502042530 | 44 | 311 | 0.0 | 3.5 | 0.00 | 0.02 | 0.02 | 83 | 1017.2 |
| 20260502042033 | 44 | 309 | 0.0 | 1.7 | 0.00 | 0.02 | 0.02 | 83 | 1017.2 |
| 20260502041542 | 45 | 309 | 0.0 | 1.7 | 0.00 | 0.02 | 0.02 | 83 | 1017.2 |
| 20260502041029 | 45 | 309 | 0.0 | 3.5 | 0.00 | 0.02 | 0.02 | 82 | 1017.2 |
| 20260502040528 | 45 | 309 | 0.9 | 2.6 | 0.00 | 0.02 | 0.02 | 82 | 1017.2 |
| 20260502040028 | 45 | 309 | 1.7 | 2.6 | 0.00 | 0.03 | 0.02 | 81 | 1017.3 |
| 20260502035526 | 46 | 318 | 0.0 | 0.0 | 0.00 | 0.03 | 0.02 | 80 | 1017.2 |
| 20260502035027 | 46 | 318 | 0.0 | 1.7 | 0.00 | 0.03 | 0.02 | 80 | 1017.1 |
| 20260502034526 | 46 | 320 | 0.0 | 1.7 | 0.00 | 0.03 | 0.02 | 80 | 1017.2 |
| 20260502034025 | 46 | 320 | 0.0 | 3.5 | 0.00 | 0.03 | 0.02 | 79 | 1017.1 |
| 20260502033526 | 47 | 320 | 0.9 | 4.3 | 0.00 | 0.03 | 0.02 | 79 | 1017.0 |
| 20260502033027 | 47 | 333 | 1.7 | 2.6 | 0.00 | 0.03 | 0.02 | 79 | 1016.9 |
| 20260502032527 | 47 | 355 | 0.9 | 2.6 | 0.00 | 0.03 | 0.02 | 78 | 1016.9 |
| 20260502032025 | 48 | 355 | 0.9 | 2.6 | 0.00 | 0.03 | 0.02 | 77 | 1016.9 |
| 20260502031525 | 48 | 5 | 1.7 | 2.6 | 0.00 | 0.03 | 0.02 | 76 | 1016.9 |
| 20260502031025 | 49 | 5 | 0.9 | 2.6 | 0.00 | 0.03 | 0.02 | 75 | 1016.9 |
| 20260502030525 | 49 | 10 | 0.9 | 2.6 | 0.00 | 0.03 | 0.02 | 73 | 1017.0 |
| 20260502030025 | 49 | 13 | 0.9 | 2.6 | 0.00 | 0.03 | 0.02 | 71 | 1017.1 |
| 20260502025528 | 50 | 13 | 0.0 | 3.5 | 0.00 | 0.03 | 0.02 | 69 | 1017.0 |
| 20260502025021 | 50 | 13 | 0.0 | 3.5 | 0.00 | 0.03 | 0.02 | 68 | 1017.1 |
| 20260502024522 | 50 | 355 | 0.9 | 2.6 | 0.00 | 0.03 | 0.02 | 67 | 1017.1 |
| 20260502024022 | 50 | 355 | 0.0 | 1.7 | 0.00 | 0.03 | 0.02 | 67 | 1017.1 |
| 20260502023522 | 50 | 355 | 0.0 | 3.5 | 0.00 | 0.03 | 0.02 | 66 | 1017.2 |
| 20260502023022 | 50 | 355 | 0.0 | 3.5 | 0.00 | 0.03 | 0.02 | 66 | 1017.2 |
| 20260502022521 | 50 | 355 | 0.0 | 1.7 | 0.00 | 0.03 | 0.02 | 66 | 1017.2 |